If you wish to contribute or participate in the discussions about articles you are invited to join SKYbrary as a registered user

 Actions

Bacău Airport

From SKYbrary Wiki

LRBC
Airport
ICAO: LRBC – IATA: BCM
Summary
Name Bacău Airport
Region
Territory Romania RO.gif
Location , Bacau
Serving Bacau
Elevation 185.014 m
607 ft
607 ft185.014 m
Type medium airport
Coordinates 46° 31' 19.01" N, 26° 54' 37.00" E
Runways
Designator Length Width Surface ROPS
16/34 2500 m8,202.1 ft
80 m262.467 ft
CON yes/yes


METAR
Observation LRBC 112330Z 03004KT CAVOK 20/15 Q1016
Station Bacau
Date/Time 11 August 2020 23:30:00
Wind direction 30°
Wind speed 04 kts
Lowest cloud amount clouds and visibility OK
Temperature 20°C
Dew point 15°C
Humidity 72%
QNH 1016 hPa
Weather condition n/a